Regional Weather Roundup
Issued by NWS Wakefield, VA

Home | Current Version | Previous Version | Text Only | Print | Product List | Glossary Off
Versions: 1 2 3 4 5 6 7 8 9 10 11 12 13 14 15 16 17 18 19 20 21 22 23 24 25 26 27 28 29 30 31 32 33 34 35 36 37 38 39 40 41 42 43 44 45 46 47 48

779
ASUS41 KAKQ 080014
RWRAKQ

REGIONAL WEATHER ROUNDUP
NATIONAL WEATHER SERVICE WAKEFIELD VA
700 PM EST SUN FEB 07 2016

Note: "fair" indicates few or no clouds below 12,000 feet with no
significant weather and/or obstructions to visibility. * = Denotes
station may not report precipitation (e.g., rain,snow,etc.),
thunder or fog.

VAZ042-051-052>054-056-080100-
NORTHERN VIRGINIA

CITY           SKY/WX    TMP DP  RH WIND       PRES   REMARKS
WASH NATIONAL  CLOUDY    42  22  44 NE8       29.96F
DULLES         MOCLDY    40  23  50 N5        29.95F
FORT BELVOIR   FAIR      41  17  37 VRB1      29.95F
QUANTICO       FAIR      43  21  41 NE6       29.97F
FREDERICKSBRG* FAIR      41  21  45 N6        29.95R
STAFFORD*      FAIR      39  17  40 N3        29.99S
WARRENTON      FAIR      36  26  68 CALM      29.94F
CULPEPER*      FAIR      33  24  69 CALM      29.96F
MANASSAS*      NOT AVBL
LEESBURG*      FAIR      41  27  56 N6        29.97S
WINCHESTER     FAIR      34  27  75 CALM      29.96R
FRONT ROYAL*   FAIR      36  23  60 CALM      29.95R
LURAY*         FAIR      34  25  69 CALM      29.94F
$$

VAZ048-049-060>072-079>083-080100-
CENTRAL AND SOUTH CENTRAL VIRGINIA

CITY           SKY/WX    TMP DP  RH WIND       PRES   REMARKS
RICHMOND       CLOUDY    41  23  48 N13       29.88F
CHESTERFIELD*  FAIR     N/A N/A N/A N7        29.89F
PETERSBURG*    CLOUDY    44  17  34 N10       29.89S
HANOVER        FAIR      41  21  44 VRB5      29.92F
TAPPAHANNOCK*  FAIR      41  24  50 N7        29.90F
QUINTON*       MOCLDY    41  23  48 N7        29.87F
CHARLOTTSVILLE FAIR      40  22  48 NE3       29.94S
GORDONSVILLE*  FAIR      36  26  67 CALM      29.94S
ORANGE*        FAIR      36  27  69 CALM      29.96F
LOUISA*        FAIR      37  23  56 N3        29.92F
BUMPASS*       FAIR      40  20  44 CALM      29.94S
FARMVILLE*     FAIR      40  23  51 N3        29.90F
CREWE*         FAIR      40  21  46 N5        29.89F
FORT PICKETT*  FAIR      40  18  40 N10       29.89R
CHASE CITY*    FAIR      40  19  43 N6        29.89S
CLARKSVILLE*   FAIR      41  23  48 N8        29.90R
SOUTH HILL*    FAIR      40  22  48 N13       29.93R
LAWRENCEVILLE* MOCLDY    41  23  48 N8        29.86S
EMPORIA*       MOCLDY    41  23  48 NW9G18    29.86F
$$

VAZ088>098-080100-
SOUTHEAST VIRGINIA

CITY           SKY/WX    TMP DP  RH WIND       PRES   REMARKS
NORFOLK        LGT RAIN  42  29  59 N23G32    29.81F
VIRGINIA BEACH LGTSLEET  43  34  70 N22G35    29.78F
NORFOLK NAVAL  CLOUDY    42  29  59 N26G33    29.83F
WEST POINT*    FAIR      41  25  53 N8        29.88F
SALUDA*        NOT AVBL
NEWPORT NEWS   CLOUDY    42  27  55 NE17G26   29.84F
LANGLEY AFB    FAIR      42  28  57 N20G33    29.82F
FORT EUSTIS    FAIR      42  22  46 N10G22    29.82F
WILLIAMSBURG*  FAIR      45  30  57 NE6G22    29.85F
HR EXEC AP*    FAIR      43  27  52 NE15G23   29.83F
FRANKLIN*      LGT RAIN  40  26  57 N12G21    29.84R
US460-WAKEFLD  CLOUDY    43  23  45 VRB7G17   29.84F
$$

VAZ020-022-025-037-045-080100-
WEST CENTRAL AND SOUTHWEST VIRGINIA

CITY           SKY/WX    TMP DP  RH WIND       PRES   REMARKS
STAUNTON*      FAIR      37  27  65 CALM      29.94F
WAYNESBORO*    FAIR      35  24  63 NW6       29.92S
HOT SPRINGS VA FAIR      36  22  56 CALM      29.84F
LYNCHBURG      FAIR      35  24  64 CALM      29.92F
DANVILLE       FAIR      39  24  55 NE5       29.90F
SOUTH BOSTON*  FAIR      40  22  49 N3        29.91S
MARTINSVILLE   FAIR      33  24  68 CALM      29.93R
ROANOKE        MOCLDY    40  24  53 N6        29.92F
BLACKSBURG     FAIR      37  25  63 CALM      29.92S
DUBLIN*        FAIR      42  24  48 NW3       29.91S
MARION*        FAIR      40  21  47 CALM      29.93S
HILLSVILLE*    FAIR      39  24  53 NW8       29.87S
RICHLANDS*     FAIR      40  17  38 NW6       29.91S
WISE*          FAIR      36  18  48 S5        29.92S
ABINGDON*      FAIR      42  21  43 W5        29.92S
$$

MDZ021>025-VAZ099-100-080100-
SOUTHERN MARYLAND AND THE DELMARVA PENINSULA

CITY           SKY/WX    TMP DP  RH WIND       PRES   REMARKS
PATUXENT RIVER CLOUDY    40  30  67 N13       29.90F
BAY BRIDGE APT   N/A     39  27  60 CALM      29.96F
LEONARDTOWN    CLOUDY    37  28  70 N3        29.92F
DOVER          CLOUDY    40  29  65 NE6       29.94F
GEORGETOWN     CLOUDY    40  26  57 NE15      29.92F
EASTON         CLOUDY    39  28  65 N7        29.97F
CAMBRIDGE      CLOUDY    39  28  65 N7        29.92F
SALISBURY      CLOUDY    40  24  53 NE12      29.89F
OCEAN CITY     CLOUDY    42  34  73 NE14G25   29.89F
WALLOPS ISLAND CLOUDY    41  31  67 N18G33    29.85F
ACCOMACK*      CLOUDY    39  27  60 N13G22    29.84F
$$

NCZ012>017-030>032-080100-
NORTH CENTRAL AND EASTERN NORTH CAROLINA

CITY           SKY/WX    TMP DP  RH WIND       PRES   REMARKS
ROANOKE RAPIDS FAIR      41  25  52 N14       29.84S
RALEIGH        CLOUDY    42  23  46 N8        29.88S
ELIZABETH CITY LGT RAIN  40  36  86 N24G36    29.73F
AHOSKIE*       LGT RAIN  40  25  55 N17G25    29.82S
EDENTON*       RAIN      39  35  85 N18G29    29.75F
CURRITUCK*     LGT RAIN  41  38  91 N24G32    29.75S
KILL DEVIL HLS RAIN      43  42  94 N24G35    29.61F
MANTEO         LGT RAIN  42  42 100 N35G47    29.62F
CAPE HATTERAS  HVY RAIN  45  44  97 N22G38    29.47F FOG
TARBORO*       LGT RAIN  41  28  59 N12       29.83S
GOLDSBORO      MIX PCPN  41  28  60 NW15G22   29.78S
WASHINGTON     RAIN      35  31  84 N16G25    29.74F
GREENVILLE     LGT RAIN  37  30  75 N13G18    29.81F
NEW BERN       LGT RAIN  37  31  78 N26G37    29.70S
WILMINGTON     LGT RAIN  37  32  82 NW22G30   29.73R
$$

VAZ048-080100-
ELSEWHERE

CITY           SKY/WX    TMP DP  RH WIND       PRES   REMARKS
HARRISBURG PA  CLOUDY    34  24  67 NW3       29.97S
BALTIMORE      CLOUDY    40  21  46 VRB3      29.95F
ANNAPOLIS      CLOUDY    40  28  62 N5        29.95F
ANDREWS AFB    FAIR      37  23  56 N8        29.93F
PHILADELPHIA   MOCLDY    42  22  44 NE8       29.97F
HENDERSON NC   CLOUDY    40  19  42 N7        29.89R
GREENSBORO     MOCLDY    42  20  41 N3        29.89F
ROCKY MOUNT    CLOUDY    42  24  49 N15G25    29.83S
$$

VAZ100-080100-
MARINE

STATION/POSITION TIME  TEMP    WIND        PRES    WAVE   SWELL
                       AIR SEA DIR/SP/G            HT/PER HT/PER
                 (UTC) (F)     (DEG/KT/KT) (MB)    (FT/S) (FT/S)
BRANDYWINE LGT   2300   41      60/ 15/ 17 1014.5F
CAPE MAY NJ      2300   41 42   40/  6/ 12 1014.3F
LEWES DE         2300   41 41   50/ 15/ 18 1014.3F
15NM E FENWICK I 2350   45 45              1011.5F   7/ 6
OCEAN-CITY-INLET 2300   42 41   30/ 10/ 15 1012.5F
WACHAPREAGUE VA  2300   41 42   10/ 13/ 18 1010.8F
GOOSES REEF MD   2300   40 40   20/ 10/ 10 1015.4F   1/ 2
COVE POINT MD    2300   39      20/ 10/ 12 1014.6F
SOLOMONS ISLAND  2300   40 41  360/  7/  9   N/A
BISHOPS HEAD MD  2300   41 41   20/  7/ 12 1012.4F
POTOMAC MD       2300   40 40  360/ 12/ 16 1012.5F   0
CAMBRIDGE MD     2300   42 40   30/  7/  8 1013.3F
LEWISETTA VA     2300   40 43   10/  8/ 12 1013.1F
RAPPAHANNOCK LGT 2300           10/ 24/ 26 1011.3F
STINGRAY PT      2300   41 42   20/ 19/ 23 1011.8F   2/ 3
YORK RVR RNG VA  2300   42      20/ 25/ 29 1009.9F
YORKTOWN VA      2300   42 43   20/ 17/ 23 1011.0F
JAMESTOWN VA     2300   42 44  360/  8/ 14   N/A     0
DOMINION TERM VA 2300   42      20/ 15/ 25 1010.2F
KIPTOPEKE VA     2300      43   20/ 13/ 24   N/A
CHES BAY BRIDGE  2300   42 43  350/ 25/ 29 1009.1F
CAPE HENRY VA    2300   41     360/ 28/ 36   N/A
CHESAPEAKE LGHT  2300   42      20/ 39/ 45 1007.4F
WILLOUBY STN VA  2300   42      10/ 23/ 27 1027.5S
CAPE HENRY BUOY  2328      46                N/A    10/ 7   2/11
1ST LANDING BUOY 2300      43                N/A     6/ 5
CAPE CHARLES BUO 2326      44                N/A     9/ 7   5/ 8
OFFSHORE WE BUOY 2321      49                N/A    12/ 8   5/15
64NM E OF VA BCH 2350   51 54   30/ 37/ 45 1002.1F  15/ 9  10/ 9
DUCK PIER NC     2300   43 45   10/ 36/ 41 1003.2F
44100 DUCK FRF   2324      47                N/A    14/ 8   3/11
44056 DUCK FRF   2311      45                N/A    13/ 8   2/11
OREGON INLET NC  2300   45 45  350/ 26/ 40 1001.8F
HATTERAS NC      2300   45 47  350/ 41/ 51  998.5F
DIAMOND SHLS NC  2350   53 71  360/ 43/ 54  993.0F  18/10
$$




USA.gov is the U.S. government's official web portal to all federal, state and local government web resources and services.